Weather in Numto

Russia / Khanty-Mansi Autonomous Okrug — Yugra     63°32′07″N   71°26′55″E
temp.,
°C
wind,
m/s
gust,
m/s
humid.,
%
clouds,
%
prec.,
mm/h
press.,
hPa
HPBL,
m
17 may, mon
mon1723:00+6se3584100 0.0 1015140
02:00+5se4587100 0.2 1014161
05:00+5se5693100 1.8 1013182
08:00+5ese5894100 2.3 1012224
11:00+5e5794100 4.0 1012276
14:00+5e5895100 2.8 1012282
17:00+6e5689100 2.9 1012361
20:00+6ene5891100 0.0 1012342
18 may, tue
tue1823:00+5ne5792100 0.0 1013256
02:00+5ne4793100 0.0 1014213
05:00+5nne4683100 0.0 1015207
08:00+8nne565794 0.0 1016514
11:00+10ne55428 0.0 10181556
14:00+11n65385 0.0 10191884
17:00+11n773972 0.0 10201876
20:00+9n7843100 0.0 10221016
19 may, wed
wed1923:00+5ne912636 0.0 1023462
02:00+4ne476793 0.0 1024179
05:00+4ne3465100 0.0 1025349
08:00+4ene4352100 0.0 1026869
11:00+5ne3342100 0.0 10261296
14:00+7nne3336100 0.0 10261462
17:00+7ne2235100 0.0 10251451
20:00+7se2137100 0.0 10241251
20 may, thu
thu2023:00+6s5551100 0.1 1023922
02:00+3sse81088100 2.6 1020429
05:00+3s111789100 8.7 1016594
08:00+7ssw121576100 0.1 1011505
11:00+13wsw111879100 0.5 1007482
14:00+20nw10145799 0.2 10071081
17:00+23nw713495 0.2 10061476
20:00+21wnw44595 0.0 100433
21 may, fri
fri2123:00+17wnw8167314 0.6 1005253
02:00+16nw7137396 1.3 1006304
05:00+13nnw61184100 1.3 1008402
08:00+13n5776100 0.0 1010453
11:00+13n567286 0.0 1011570
14:00+17nnw676185 0.0 1013923
17:00+15n566098 0.0 1014597
20:00+15nne345921 0.0 1015218